Вернуться в каталог

STARLINK-31916

АктивенСвязьVLEO
NORAD 59795·PAYLOAD·🇺🇸 United States

Запущен May 18, 2024 с Cape Canaveral Space Force Station

Loading…

Ближайшие Пролёты (ближайшие 24 часа)

TLE

СвежийSource: CelesTrak SupGP

Эпоха: Sep 15, 2026, 03:29 UTC

1 59795C 24093P   26258.14562500 -.00051224  00000+0 -18558-2 0  2581
2 59795  43.0004 218.9569 0001316 271.9185 323.1129 15.27596197    16

Отслеживайте STARLINK-31916 в реальном времени с AllMySat

Download on the App Store